Regional Weather Roundup
Issued by NWS

Home | Current Version | Previous Version | Graphics & Text | Print | Product List | Glossary On
Versions: 1 2 3 4 5 6 7 8 9 10 11 12 13 14 15 16 17 18 19 20 21 22 23 24 25 26 27 28 29 30 31 32 33 34 35 36 37 38 39 40 41 42 43 44 45 46 47 48 49 50
000
ASUS43 KIND 291109
RWRIN

WEATHER ROUNDUP FOR INDIANA
NATIONAL WEATHER SERVICE INDIANAPOLIS IN
700 AM EDT SAT AUG 29 2015

NOTE: "FAIR" INDICATES FEW OR NO CLOUDS BELOW 12,000 FEET WITH NO
SIGNIFICANT WEATHER AND/OR OBSTRUCTIONS TO VISIBILITY.

* - STATION DOES NOT REPORT WEATHER SUCH AS PRECIPITATION OR FOG.

+ - STATION NOT QUALITY CONTROLLED BY THE NATIONAL WEATHER SERVICE.
    USE DATA WITH CAUTION...ESPECIALLY DEWPOINT AND RELATIVE
    HUMIDITY OBSERVATIONS.

INZ001>003-010>013-019-020-291200-
NORTHWEST INDIANA

CITY           SKY/WX    TMP DP  RH WIND       PRES   REMARKS
GARY /AIRPORT/ CLOUDY    66  59  77 SE7       30.05S
KNOX *+        CLOUDY    61  59  94 CALM      30.07R
LA PORTE +     CLOUDY    63  63 100 CALM      30.09R
MICHIGAN CITY+ CLOUDY    64  55  72 CALM      30.07S
MONTICELLO +   CLOUDY    64  61  88 CALM      30.06R
RENSSELAER +   CLOUDY    63  63 100 SE5       30.06S
VALPARAISO     CLOUDY    62  59  90 CALM      30.07R

$$

LMZ046-743>745-291200-
SOUTHERN LAKE MICHIGAN

STATION/POSITION TIME  TEMP    WIND        PRES    WAVE
                       AIR SEA DIR/SP/G            HT
                 (UTC) (F)     (DEG/KT/KT) (MB)    (FT)
BURNS HARBOR     1000   68     160/  8/ 14 1017.9S
MICHIGAN CITY    1000   67     130/ 10/ 11   N/A
5NW MICH CITY    1100   68 70  170/ 10/ 12   N/A     1

$$

INZ004-005-014>016-021>024-291200-
NORTH CENTRAL INDIANA

CITY           SKY/WX    TMP DP  RH WIND       PRES   REMARKS
GOSHEN         MOCLDY    64  58  80 SE5       30.09S
LOGANSPORT +   CLOUDY    61  57  88 E3        30.09R FOG
PERU/GRISSOM   CLOUDY    64  59  84 SE3       30.08R
ROCHESTER +    MOCLDY    66  61  82 SE3       30.09R
SOUTH BEND     CLOUDY    65  58  78 SE5       30.09R
WARSAW +       MOCLDY    61  57  88 CALM      30.09S

$$

INZ006>009-017-018-025>027-291200-
NORTHEAST INDIANA

CITY           SKY/WX    TMP DP  RH WIND       PRES   REMARKS
ANGOLA *+      PTCLDY    63  52  67 SE3       30.11S
AUBURN +       CLOUDY    61  55  82 CALM      30.12R
FORT WAYNE     CLOUDY    63  59  87 CALM      30.11R
HUNTINGTON +   CLOUDY    64  56  75 CALM      30.10R

$$

INZ028-029-035-036-043>045-051>053-291200-
WEST CENTRAL INDIANA

CITY           SKY/WX    TMP DP  RH WIND       PRES   REMARKS
CRAWFORDSVL +  MOCLDY    61  57  89 CALM      30.07R
GREENCASTLE +  PTCLDY    61  55  82 CALM      30.08S
LAFAYETTE      MOCLDY    64  59  83 CALM      30.06S
TERRE HAUTE    PTCLDY    66  61  84 S6        30.06S

$$

INZ030>032-037>040-046>048-054>057-064-065-291200-
CENTRAL INDIANA

CITY           SKY/WX    TMP DP  RH WIND       PRES   REMARKS
COLUMBUS       PTCLDY    63  59  88 CALM      30.10
FRANKFORT +    MOCLDY   N/A N/A N/A E3        30.09S
GREENWOOD *+   MOCLDY    64  57  77 SE5       30.10S
INDIANAPOLIS   MOCLDY    66  59  78 SE7       30.07S
-EAGLE CREEK   MOCLDY    67  60  78 SE5       30.08S
KOKOMO *+      CLOUDY    63  57  82 SE5       30.09S
MARION +       MOCLDY    62  53  70 CALM      30.10S
MT COMFORT *+  MOCLDY    64  61  88 SE5       30.10S
SHELBYVILLE    CLOUDY    66  60  81 SE5       30.09S
ZIONSVILLE +   MOCLDY    64  59  81 SE5       30.09S

$$

INZ033-034-041-042-049-050-058-059-291200-
EAST CENTRAL INDIANA

CITY           SKY/WX    TMP DP  RH WIND       PRES   REMARKS
MUNCIE         MOCLDY    65  58  78 S5        30.10S

$$

INZ060-061-067>069-081>083-085>088-291200-
SOUTHWEST INDIANA

CITY           SKY/WX    TMP DP  RH WIND       PRES   REMARKS
EVANSVILLE     CLOUDY    69  65  86 CALM      30.08R
HUNTINGBURG *+ CLOUDY    66  63  88 SE6       30.09S
WASHINGTON +   CLOUDY    66  62  87 S5        30.07R

$$

INZ062-063-066-070>080-084-089>092-291200-
SOUTH CENTRAL AND SOUTHEAST INDIANA

CITY           SKY/WX    TMP DP  RH WIND       PRES   REMARKS
BLOOMINGTON    PTCLDY    66  61  84 SE7       30.09S
MADISON *+     CLOUDY    66  63  88 S6        30.14R
NORTH VERNON + CLOUDY    68  63  83 CALM      30.11S
SEYMOUR +      CLOUDY    64  63  94 SE3       30.10R

$$




USA.gov is the U.S. government's official web portal to all federal, state and local government web resources and services.